CW4541 Weather Reports


time (UTC)temp
C
wind
direction
speed
KPH
gust
KPH
rain 1hr
cm
rain 24hr
cm
rain mn
cm
humidity
%
barometer
mb
20260905050606 12 31 0.0 0.0 0.00 0.00 0.00 33 1021.3
20260905050113 13 34 0.0 0.0 0.00 0.00 0.00 33 1021.4
20260905040606 15 26 0.0 0.0 0.00 0.00 0.00 29 1021.4
20260905030606 16 24 0.0 1.6 0.00 0.00 0.00 23 1020.7
20260905030112 16 24 0.0 1.6 0.00 0.00 0.00 23 1020.7
20260905020608 19 23 0.0 0.0 0.00 0.00 0.00 18 1019.7
20260905020112 20 16 0.0 0.0 0.00 0.00 0.00 17 1019.7
20260905010606 23 13 1.6 9.7 0.00 0.00 0.00 12 1019.4
20260905010112 24 155 1.6 8.0 0.00 0.00 0.00 12 1019.4
20260905000606 25 156 3.2 12.9 0.00 0.00 0.00 13 1019.4
20260904230607 25 118 1.6 19.3 0.00 0.00 0.00 16 1019.3
20260904230112 25 173 4.8 19.3 0.00 0.00 0.00 15 1019.4
20260904220606 26 165 4.8 14.5 0.00 0.00 0.00 17 1019.6
20260904220111 26 200 8.0 14.5 0.00 0.00 0.00 17 1019.6
20260904210112 26 155 11.3 19.3 0.00 0.00 0.00 15 1020.0
20260904200606 24 14 3.2 12.9 0.00 0.00 0.00 22 1020.5
20260904190111 23 14 3.2 12.9 0.00 0.00 0.00 27 1020.7
20260904180606 22 11 3.2 11.3 0.00 0.00 0.00 33 1021.6
20260904180112 22 14 0.0 11.3 0.00 0.00 0.00 29 1021.7
20260904170605 21 15 1.6 9.7 0.00 0.00 0.00 38 1021.6
20260904170112 21 15 3.2 9.7 0.00 0.00 0.00 37 1021.6
20260904160606 20 20 1.6 12.9 0.00 0.00 0.00 40 1021.5
20260904160111 20 17 3.2 12.9 0.00 0.00 0.00 40 1021.5
20260904150605 18 183 1.6 9.7 0.00 0.00 0.00 44 1021.3
20260904150112 18 221 3.2 11.3 0.00 0.00 0.00 44 1021.3
20260904140606 12 219 0.0 4.8 0.00 0.00 0.00 60 1021.7
20260904140111 12 178 0.0 3.2 0.00 0.00 0.00 61 1021.6
20260904130606 10 198 0.0 0.0 0.00 0.00 0.00 64 1021.1
20260904120606 11 198 0.0 0.0 0.00 0.00 0.00 57 1020.4
20260904120111 11 197 0.0 0.0 0.00 0.00 0.00 57 1020.4
20260904110111 12 195 0.0 0.0 0.00 0.00 0.00 52 1019.9
20260904100605 11 218 0.0 1.6 0.00 0.00 0.00 54 1019.4
20260904100111 11 219 0.0 0.0 0.00 0.00 0.00 53 1019.3
20260904090605 12 222 0.0 1.6 0.00 0.00 0.00 47 1018.9
20260904090111 12 35 0.0 1.6 0.00 0.00 0.00 46 1018.9
20260904080605 11 39 0.0 0.0 0.00 0.00 0.00 48 1018.8
20260904080111 12 47 0.0 0.0 0.00 0.00 0.00 48 1018.9
20260904070605 12 41 0.0 3.2 0.00 0.00 0.00 49 1018.8
20260904060605 12 36 0.0 0.0 0.00 0.00 0.00 45 1018.7
20260904060113 12 40 0.0 0.0 0.00 0.00 0.00 45 1018.7